Wind_Speed
14 14 13 12 12 11 11 11 10 10 10 11 11 14 16 17 17 14 10 4 4 4 2 1 2 5 7 9 11 12 13 15 15 15 15 15 16 17 19 20 21 21 22 23 23 25 27
15 14 14 15 15 14 13 13 13 13 13 13 15 16 17 16 13 9 7 7 7 6 5 5 7 10 12 13 15 16 17 18 18 18 18 19 19 20 21 22 23 24 25 26 26 29 29
15 16 15 15 16 16 15 15 15 15 14 14 16 18 18 15 10 10 8 9 8 6 7 9 12 13 15 17 19 20 21 20 20 19 20 21 23 24 24 25 23 24 25 27 29 30 31
17 17 17 16 16 17 17 17 17 15 15 16 18 19 17 15 14 12 10 9 9 10 12 14 16 17 19 23 24 25 26 25 24 23 23 25 27 26 26 26 25 24 24 26 27 25 28
16 17 17 16 17 17 17 16 16 17 17 17 18 18 15 15 15 13 10 11 13 14 16 17 20 22 25 27 29 27 24 23 23 23 24 24 23 23 24 26 25 27 26 24 25 23 26
15 16 16 17 17 18 17 17 17 17 18 19 19 17 17 14 11 11 13 15 16 17 19 23 25 27 29 30 25 23 23 24 23 21 20 20 21 22 22 24 24 25 27 28 25 28 30
15 16 16 17 17 16 17 16 17 18 18 19 19 17 18 14 12 15 17 18 17 20 24 26 30 31 28 24 24 22 21 20 19 18 19 20 22 21 25 24 25 27 28 29 30 33 36
15 16 17 16 17 17 17 17 18 17 18 20 20 19 19 17 16 17 18 19 21 24 25 30 30 23 22 22 21 21 19 17 18 19 21 22 23 25 25 27 29 31 33 33 35 37 42
17 16 18 18 18 18 18 19 20 20 19 20 21 21 21 18 18 20 21 23 24 26 31 29 25 23 24 22 20 19 19 20 21 23 24 23 24 25 29 30 33 36 37 40 40 42 45
19 18 18 19 20 20 20 20 20 22 23 22 23 24 20 21 22 22 23 25 26 30 32 25 24 23 21 22 21 21 23 25 26 25 25 26 26 29 33 34 38 39 41 42 45 49 50
19 21 19 20 20 22 22 22 23 23 24 25 25 23 22 21 23 24 26 27 28 32 31 28 26 24 23 22 24 25 27 28 29 29 28 31 33 34 36 38 40 43 46 47 50 52 53
22 22 23 22 22 22 23 24 26 26 26 25 25 25 23 25 26 27 26 27 30 32 34 30 27 25 25 25 27 29 30 32 32 32 34 36 38 41 41 43 45 48 50 51 52 54 56
24 24 23 24 24 24 23 24 25 27 28 28 27 26 28 28 29 27 27 27 29 31 32 29 27 28 29 29 31 33 34 35 34 36 38 40 43 44 47 47 48 48 50 55 57 62 63
25 25 25 24 25 26 26 26 26 26 28 29 28 28 29 29 29 29 28 29 30 31 31 31 31 32 31 32 34 37 38 39 36 40 43 45 48 49 50 49 50 51 56 61 66 67 69
27 26 26 25 25 26 26 25 27 26 26 26 28 28 29 30 31 31 31 30 31 31 32 33 34 36 34 34 37 39 41 42 42 44 45 49 49 51 51 53 54 58 61 65 69 72 75
28 26 26 26 25 26 25 26 29 30 28 26 27 29 31 31 32 33 34 34 35 37 36 35 35 36 38 38 39 42 46 46 46 46 47 50 52 51 54 56 59 64 68 70 72 77 78
31 30 27 27 28 28 27 27 28 30 30 31 29 29 32 32 34 36 36 35 37 39 39 37 36 38 39 41 43 45 48 48 48 49 50 51 54 56 60 62 68 69 72 76 79 79 79
35 31 32 29 30 30 30 31 33 35 34 34 34 33 31 33 36 39 37 38 37 38 39 37 38 39 42 44 45 47 49 49 50 51 53 55 58 62 65 69 71 76 80 80 80 82 79
34 35 35 36 34 33 34 35 35 35 37 37 38 38 38 37 36 37 38 39 39 39 39 40 41 41 43 44 48 49 50 51 52 55 57 60 65 68 71 75 78 79 79 80 79 80 79
38 37 33 33 37 35 35 38 39 41 41 43 43 44 42 43 40 42 40 42 42 42 41 42 43 45 46 47 49 52 54 54 56 59 61 65 68 70 73 75 76 78 77 75 73 71 66
43 40 35 34 36 39 41 43 44 44 47 47 46 48 47 45 45 45 45 46 44 43 43 44 45 45 47 49 50 54 55 58 62 63 66 70 73 76 79 78 77 74 72 65 64 59 58
42 41 41 40 40 41 42 42 46 49 51 52 51 49 49 48 46 47 48 47 48 46 45 45 48 47 47 51 54 57 60 63 66 69 73 77 77 79 77 72 68 67 59 57 54 52 48
45 41 42 44 45 43 45 46 48 46 47 48 47 50 50 49 49 49 47 47 48 50 47 48 48 46 49 54 56 59 63 66 69 73 77 77 77 73 69 62 58 54 51 47 42 43 41
36 38 42 45 46 43 41 37 38 40 44 45 47 46 47 48 48 47 43 44 45 46 48 45 43 48 53 56 59 63 66 70 73 76 76 74 67 62 56 50 50 47 41 39 38 36 34
36 39 41 43 45 43 43 42 42 40 44 45 44 45 46 46 45 42 46 46 44 46 45 41 46 52 55 60 63 67 70 75 78 77 70 62 55 49 46 43 43 43 38 34 33 32 33
36 32 36 36 40 41 41 43 47 47 47 46 46 42 43 43 39 40 41 42 41 40 41 46 50 55 59 62 67 70 74 77 72 71 60 54 46 41 39 41 41 37 34 34 33 34 37
33 31 26 27 30 35 37 40 43 41 40 39 39 40 39 36 37 38 38 39 39 42 46 49 54 59 63 68 72 74 73 69 62 51 51 40 37 36 38 39 36 35 35 34 35 37 40
30 27 24 25 28 31 36 38 38 35 33 33 35 35 35 35 36 36 35 37 42 46 49 54 59 63 69 72 75 71 69 61 49 44 37 33 36 38 37 37 36 33 34 35 36 37 40
23 21 26 31 33 36 39 35 33 31 33 32 26 27 29 31 30 31 36 40 45 48 53 59 64 68 72 74 73 71 56 48 39 33 33 35 36 36 36 34 32 32 34 35 37 37 35
Wind_Direction
231 235 240 246 256 267 276 280 283 288 288 291 298 308 313 315 313 307 304 256 200 204 211 220 311 316 308 309 305 303 304 308 307 305 304 301 299 298 300 299 296 294 292 294 295 293 291
234 241 246 251 257 264 270 276 283 286 291 298 303 309 310 311 306 297 278 223 221 230 247 286 301 311 315 310 308 307 305 303 299 297 300 299 298 298 297 297 298 295 295 295 293 290 290
241 237 241 251 260 265 269 273 277 283 292 297 300 305 309 303 293 283 245 232 242 259 275 288 301 308 311 312 311 310 307 304 301 297 295 294 294 294 295 294 293 293 292 292 293 291 291
246 248 246 247 254 262 268 274 279 283 289 292 300 306 306 300 295 285 257 243 255 273 286 294 302 305 306 306 307 306 305 301 299 296 294 294 293 292 292 291 292 292 289 287 290 289 291
250 250 252 253 257 262 267 267 271 277 282 289 296 304 301 301 291 281 259 260 271 282 289 298 302 303 304 306 305 304 304 303 300 298 298 296 294 295 294 293 296 293 295 292 289 292 289
246 255 258 261 265 266 263 265 267 273 281 290 296 298 294 283 278 266 261 267 279 289 296 301 302 302 306 306 305 304 302 301 300 300 299 298 297 298 298 300 301 299 298 299 298 293 293
248 254 261 269 273 270 269 265 269 276 283 288 293 289 292 270 252 254 263 274 282 291 297 301 301 300 303 303 305 304 303 303 303 303 303 299 298 297 293 296 296 294 296 296 296 295 289
251 258 261 265 271 275 275 273 275 277 281 286 287 283 285 273 273 279 281 283 286 291 297 304 303 301 303 303 302 303 303 304 304 302 302 299 297 293 293 296 297 294 293 293 292 292 289
253 254 262 269 269 271 275 278 279 280 281 282 281 279 281 271 271 275 278 282 288 295 304 303 300 301 302 299 298 297 298 300 297 296 298 297 299 294 297 297 294 293 296 294 295 290 290
259 258 259 264 268 272 275 277 281 283 284 282 280 277 267 260 264 272 279 285 288 298 305 303 299 299 294 296 294 294 294 295 294 298 298 298 298 299 298 296 295 296 293 294 292 290 291
263 265 262 264 267 272 276 278 281 282 284 286 284 274 266 261 267 268 278 284 292 305 306 306 301 297 297 294 291 290 293 293 295 299 297 297 300 297 296 295 295 293 293 293 292 289 287
264 262 267 267 266 269 274 278 283 283 282 283 280 274 264 265 268 276 279 285 295 304 302 298 296 295 293 291 291 291 292 293 295 298 297 296 297 297 298 298 297 295 295 292 291 290 289
265 265 266 270 274 274 275 278 280 282 280 280 277 271 267 269 274 273 278 285 296 301 302 296 292 293 292 293 292 292 293 293 296 298 297 297 297 297 297 297 295 294 294 292 291 290 292
266 267 265 267 273 276 279 281 285 287 285 282 281 276 274 274 279 279 282 290 298 305 298 292 289 289 292 291 292 292 292 293 298 298 299 300 299 300 300 300 298 299 297 298 296 295 293
262 265 269 266 267 273 277 282 287 288 286 283 282 279 279 280 278 275 280 291 299 300 297 291 288 288 290 290 290 291 293 296 300 299 299 299 301 300 302 300 301 298 297 297 295 292 290
254 258 264 267 268 269 272 282 288 289 288 287 284 282 280 281 279 276 280 287 294 299 296 291 288 288 290 292 291 293 293 299 300 300 300 301 300 299 298 299 297 296 296 295 294 295 294
253 256 258 263 265 268 272 279 283 287 288 286 283 282 283 283 279 275 278 286 294 298 296 292 288 287 290 292 294 295 297 300 300 301 301 302 301 301 301 302 298 297 296 295 296 295 293
250 257 260 263 265 266 272 276 281 287 290 290 289 287 285 282 280 278 279 285 293 296 293 290 289 289 290 292 295 297 300 301 301 301 300 301 301 302 302 299 298 297 299 299 297 295 289
249 258 264 265 266 268 269 272 275 280 284 286 290 290 288 285 283 280 281 284 289 292 290 289 289 289 292 294 297 298 300 301 302 301 303 303 302 302 301 302 301 301 299 296 294 292 291
254 256 265 264 263 266 269 272 273 276 280 286 286 287 285 283 284 284 285 284 288 291 289 287 289 289 290 293 298 299 299 299 300 302 302 302 302 301 301 301 300 298 295 294 292 291 291
253 255 257 263 263 262 268 271 272 275 276 279 283 282 280 280 282 282 283 286 288 290 288 288 290 289 292 296 298 299 300 301 300 303 303 303 302 303 302 302 299 296 296 296 293 294 293
245 253 259 262 264 266 275 277 275 274 274 278 276 278 280 280 282 284 287 289 290 289 288 289 290 292 296 298 299 300 301 303 304 304 304 303 304 303 302 299 298 296 298 295 295 294 294
256 256 261 263 268 269 274 272 273 269 273 274 275 277 276 279 282 285 285 285 287 285 285 287 290 295 298 298 301 302 303 304 304 304 305 305 304 301 300 298 297 298 296 298 296 295 297
256 260 263 268 263 265 266 265 269 273 276 276 274 277 279 283 287 288 290 289 287 286 285 287 295 297 298 300 301 303 305 305 305 306 305 305 301 299 299 301 301 300 302 297 297 297 299
254 252 260 264 260 260 263 266 271 275 278 277 276 279 283 286 286 287 284 288 287 283 286 298 298 298 300 303 305 306 306 305 306 307 308 304 301 300 303 304 304 301 303 299 302 299 300
264 260 264 264 272 264 265 266 270 271 275 275 279 283 284 285 285 287 287 285 284 290 299 297 299 301 303 305 307 307 308 309 308 308 306 303 301 301 305 303 300 300 298 301 302 301 305
259 253 259 262 268 268 264 263 266 267 274 277 280 281 279 284 286 286 283 287 296 298 298 301 302 304 307 308 308 309 310 311 309 304 303 304 303 307 305 302 299 301 303 304 302 306 307
264 270 267 276 274 271 269 265 267 270 274 277 279 278 280 282 283 283 292 298 298 299 302 304 306 308 307 308 311 313 313 312 305 303 299 298 303 303 304 299 298 302 298 301 305 308 308
267 282 277 271 279 283 276 275 271 276 277 275 274 279 280 279 286 293 296 297 299 303 306 307 308 308 310 313 315 314 314 310 306 295 297 299 303 302 300 296 301 297 300 304 309 308 312
Height
5810 5812 5813 5815 5816 5816 5816 5817 5816 5815 5814 5813 5812 5811 5810 5809 5807 5806 5806 5806 5806 5806 5806 5806 5806 5805 5805 5804 5804 5802 5801 5800 5799 5798 5797 5796 5796 5795 5795 5795 5794 5793 5793 5792 5793 5792 5791
5807 5810 5811 5812 5813 5814 5814 5815 5815 5814 5813 5812 5811 5809 5808 5806 5805 5804 5804 5804 5805 5806 5806 5805 5805 5804 5804 5803 5801 5800 5799 5798 5796 5795 5794 5793 5792 5791 5791 5790 5790 5789 5789 5788 5788 5787 5787
5806 5805 5807 5809 5810 5811 5812 5812 5812 5812 5811 5810 5809 5807 5806 5805 5803 5802 5802 5803 5804 5804 5804 5804 5803 5802 5801 5801 5799 5797 5796 5794 5793 5791 5790 5789 5788 5787 5786 5785 5784 5783 5783 5782 5782 5781 5781
5803 5804 5805 5805 5805 5807 5808 5809 5810 5809 5808 5808 5807 5806 5804 5803 5802 5801 5801 5802 5802 5803 5802 5801 5800 5799 5798 5796 5794 5792 5791 5789 5788 5787 5785 5784 5783 5782 5780 5779 5778 5777 5776 5774 5774 5775 5774
5802 5802 5803 5803 5803 5803 5805 5805 5805 5806 5805 5804 5803 5802 5802 5801 5801 5800 5800 5801 5801 5800 5799 5798 5798 5796 5795 5792 5790 5787 5785 5784 5783 5781 5780 5778 5777 5776 5775 5773 5773 5771 5769 5768 5766 5767 5766
5799 5800 5801 5801 5801 5800 5801 5801 5802 5802 5801 5801 5800 5799 5799 5798 5798 5799 5799 5799 5798 5797 5796 5795 5794 5793 5790 5787 5784 5782 5780 5778 5777 5776 5775 5773 5772 5771 5770 5768 5768 5765 5761 5762 5763 5761 5760
5795 5797 5798 5799 5799 5798 5798 5798 5798 5798 5799 5798 5797 5796 5795 5795 5794 5794 5795 5795 5796 5795 5792 5791 5789 5786 5784 5782 5779 5777 5775 5774 5772 5771 5770 5769 5768 5766 5763 5762 5761 5759 5758 5756 5756 5754 5751
5791 5793 5794 5795 5795 5796 5796 5795 5795 5794 5794 5794 5793 5792 5792 5792 5792 5793 5792 5792 5790 5790 5788 5786 5782 5780 5778 5776 5775 5773 5771 5770 5768 5767 5765 5764 5762 5760 5757 5755 5754 5752 5750 5749 5749 5747 5743
5787 5787 5790 5792 5792 5792 5792 5792 5792 5791 5790 5789 5789 5788 5788 5788 5788 5789 5788 5787 5785 5784 5783 5781 5778 5776 5774 5772 5770 5768 5767 5765 5763 5761 5760 5758 5756 5753 5751 5749 5746 5744 5743 5739 5740 5737 5733
5786 5784 5784 5785 5787 5787 5787 5787 5787 5786 5786 5784 5784 5784 5783 5783 5784 5783 5783 5782 5780 5778 5776 5775 5773 5770 5768 5767 5766 5764 5762 5761 5758 5756 5753 5751 5748 5746 5744 5741 5738 5736 5732 5730 5727 5725 5723
5783 5783 5781 5780 5781 5782 5783 5783 5782 5781 5781 5780 5779 5778 5778 5778 5778 5776 5776 5775 5774 5773 5770 5770 5767 5765 5764 5762 5760 5758 5756 5753 5751 5749 5748 5744 5740 5737 5734 5731 5728 5725 5722 5719 5715 5713 5710
5778 5778 5779 5778 5776 5776 5777 5777 5777 5776 5776 5775 5774 5774 5772 5773 5772 5772 5770 5768 5768 5768 5763 5763 5760 5758 5757 5755 5753 5751 5749 5746 5744 5742 5738 5734 5730 5727 5724 5721 5716 5712 5710 5706 5702 5699 5699
5773 5773 5773 5774 5774 5773 5771 5770 5770 5770 5770 5769 5769 5768 5768 5767 5767 5764 5763 5762 5762 5760 5757 5755 5753 5752 5750 5749 5746 5742 5740 5737 5735 5732 5728 5724 5720 5717 5714 5711 5705 5700 5695 5689 5689 5682 5683
5768 5768 5767 5767 5769 5769 5767 5766 5765 5764 5764 5763 5763 5762 5762 5761 5761 5760 5758 5758 5755 5753 5751 5749 5747 5744 5743 5740 5738 5734 5730 5727 5727 5721 5717 5713 5708 5703 5700 5696 5691 5685 5679 5672 5664 5666 5663
5760 5762 5763 5761 5761 5762 5763 5761 5760 5758 5756 5756 5757 5757 5756 5755 5755 5753 5752 5751 5748 5746 5744 5741 5739 5736 5735 5731 5728 5724 5721 5717 5715 5710 5706 5699 5697 5690 5687 5681 5678 5673 5666 5658 5644 5647 5637
5751 5753 5754 5755 5755 5755 5755 5756 5755 5754 5752 5749 5749 5750 5748 5748 5747 5745 5745 5742 5740 5738 5735 5733 5730 5728 5724 5722 5719 5715 5710 5708 5704 5699 5693 5688 5683 5679 5673 5669 5662 5656 5650 5644 5634 5618 5613
5745 5747 5745 5747 5748 5748 5748 5748 5748 5747 5746 5744 5742 5741 5741 5740 5739 5737 5736 5734 5732 5730 5727 5724 5721 5717 5715 5712 5708 5703 5699 5696 5691 5686 5680 5674 5670 5666 5656 5652 5642 5640 5631 5620 5615 5611 5593
5737 5740 5739 5739 5740 5740 5740 5741 5742 5740 5739 5737 5737 5735 5733 5731 5731 5728 5728 5724 5723 5721 5717 5714 5711 5708 5704 5701 5697 5692 5688 5683 5678 5673 5667 5662 5654 5650 5644 5635 5626 5616 5608 5601 5592 5586 5575
5729 5731 5732 5732 5733 5732 5732 5732 5732 5732 5732 5731 5729 5728 5726 5724 5721 5719 5719 5715 5713 5711 5707 5705 5701 5698 5694 5689 5684 5680 5676 5672 5667 5659 5653 5648 5639 5634 5625 5615 5604 5595 5587 5577 5567 5556 5550
5721 5723 5724 5724 5724 5723 5723 5724 5723 5722 5721 5721 5720 5720 5718 5715 5713 5709 5710 5707 5704 5701 5697 5694 5690 5686 5681 5677 5672 5666 5662 5659 5652 5645 5638 5630 5624 5616 5609 5601 5584 5578 5569 5558 5546 5536 5528
5712 5713 5715 5714 5714 5713 5713 5713 5713 5713 5712 5711 5710 5708 5706 5705 5703 5700 5699 5697 5695 5691 5687 5683 5680 5675 5669 5665 5660 5654 5648 5641 5637 5631 5622 5614 5606 5596 5586 5579 5569 5557 5548 5540 5530 5523 5512
5701 5703 5705 5705 5705 5704 5704 5702 5703 5702 5702 5700 5698 5697 5694 5693 5692 5689 5687 5686 5683 5679 5676 5673 5667 5663 5658 5653 5647 5639 5635 5628 5621 5614 5605 5596 5585 5574 5566 5556 5545 5536 5532 5523 5515 5509 5502
5690 5692 5693 5693 5694 5693 5692 5691 5692 5691 5691 5689 5686 5684 5682 5683 5680 5678 5676 5673 5671 5668 5665 5659 5655 5651 5647 5641 5634 5627 5620 5612 5604 5595 5585 5575 5565 5552 5547 5538 5530 5524 5516 5510 5503 5497 5493
5680 5681 5682 5683 5683 5683 5682 5682 5681 5680 5679 5678 5676 5674 5673 5672 5669 5666 5665 5662 5659 5656 5653 5648 5643 5639 5634 5627 5620 5612 5604 5596 5587 5577 5566 5556 5544 5534 5526 5521 5515 5509 5506 5499 5494 5488 5484
5668 5668 5669 5672 5672 5672 5672 5672 5671 5670 5669 5667 5665 5664 5663 5660 5658 5657 5653 5652 5648 5644 5641 5636 5632 5627 5620 5614 5606 5596 5587 5579 5570 5561 5548 5536 5527 5521 5516 5509 5505 5493 5494 5488 5484 5482 5477
5658 5656 5659 5661 5661 5661 5660 5661 5661 5659 5658 5657 5655 5653 5652 5650 5649 5646 5643 5641 5638 5634 5630 5626 5620 5613 5606 5597 5588 5578 5568 5558 5543 5537 5533 5523 5517 5510 5506 5498 5493 5491 5484 5480 5476 5471 5466
5646 5647 5647 5649 5649 5649 5649 5649 5649 5648 5647 5646 5645 5643 5642 5640 5639 5637 5634 5631 5628 5624 5620 5615 5608 5600 5592 5583 5573 5564 5552 5542 5531 5520 5509 5508 5505 5501 5494 5490 5485 5481 5477 5472 5469 5467 5457
5640 5640 5638 5639 5640 5641 5642 5640 5640 5639 5637 5636 5636 5634 5633 5631 5630 5627 5624 5621 5617 5613 5608 5602 5595 5586 5577 5567 5557 5544 5534 5522 5516 5509 5505 5501 5497 5492 5487 5482 5479 5476 5470 5467 5463 5457 5449
5629 5627 5627 5632 5633 5633 5635 5633 5631 5628 5629 5628 5626 5626 5625 5624 5621 5618 5615 5611 5607 5602 5596 5588 5581 5571 5561 5549 5537 5525 5518 5508 5504 5499 5497 5494 5492 5486 5481 5474 5471 5467 5463 5458 5454 5448 5443